Satellite: ORSTED
Catalog number: 25635
Epoch time:      103018.08660926
Element set:     809 
Inclination:       96.4476 deg
RA of node:        11.8620 deg
Eccentricity:    0.0146873
Arg of perigee:    68.9537 deg
Mean anomaly:     292.7293 deg
Mean motion:   14.44777870 rev/day
Decay rate:    1.0769E-005 rev/day^2
Epoch rev:           20539
Checksum:              345

Satellite: SUNSAT
Catalog number: 25636
Epoch time:      103017.88818205
Element set:     657 
Inclination:       96.4513 deg
RA of node:        10.4338 deg
Eccentricity:    0.0150726
Arg of perigee:    75.9281 deg
Mean anomaly:     285.8610 deg
Mean motion:   14.42922471 rev/day
Decay rate:    5.0899E-006 rev/day^2
Epoch rev:           20524
Checksum:              314

Satellite: UOSAT 12
Catalog number: 25693
Epoch time:      103017.98456035
Element set:     621 
Inclination:       64.5600 deg
RA of node:       107.4555 deg
Eccentricity:    0.0017359
Arg of perigee:   316.9712 deg
Mean anomaly:      43.0040 deg
Mean motion:   14.76352484 rev/day
Decay rate:    7.6300E-006 rev/day^2
Epoch rev:           20159
Checksum:              292

Satellite: FENGYUN 1C
Catalog number: 25730
Epoch time:      103018.18477953
Element set:     745 
Inclination:       98.6364 deg
RA of node:        43.7634 deg
Eccentricity:    0.0015363
Arg of perigee:    92.2051 deg
Mean anomaly:     268.0885 deg
Mean motion:   14.11730164 rev/day
Decay rate:    4.1000E-007 rev/day^2
Epoch rev:           19020
Checksum:              287

Satellite: ASTRA 1H
Catalog number: 25785
Epoch time:      103013.00000000
Element set:     368 
Inclination:        0.0122 deg
RA of node:       319.8851 deg
Eccentricity:    0.0002995
Arg of perigee:    65.1991 deg
Mean anomaly:     106.1621 deg
Mean motion:    1.00273184 rev/day
Decay rate:    1.3899E-006 rev/day^2
Epoch rev:            1313
Checksum:              244

Satellite: TERRA
Catalog number: 25994
Epoch time:      103018.13681289
Element set:     612 
Inclination:       98.2034 deg
RA of node:        94.8357 deg
Eccentricity:    0.0001053
Arg of perigee:    73.2725 deg
Mean anomaly:     286.8586 deg
Mean motion:   14.57094558 rev/day
Decay rate:    6.5700E-006 rev/day^2
Epoch rev:           16409
Checksum:              329

Satellite: JAWSAT
Catalog number: 26061
Epoch time:      103018.19481755
Element set:     743 
Inclination:      100.2116 deg
RA of node:        69.4331 deg
Eccentricity:    0.0035340
Arg of perigee:     8.8134 deg
Mean anomaly:     351.3660 deg
Mean motion:   14.37787133 rev/day
Decay rate:    7.9399E-006 rev/day^2
Epoch rev:           15602
Checksum:              290

Satellite: OPAL
Catalog number: 26063
Epoch time:      103017.70185015
Element set:     700 
Inclination:      100.2167 deg
RA of node:        66.4923 deg
Eccentricity:    0.0037380
Arg of perigee:    16.8437 deg
Mean anomaly:     343.3975 deg
Mean motion:   14.35467610 rev/day
Decay rate:    2.7099E-006 rev/day^2
Epoch rev:           15581
Checksum:              291

Satellite: ASUSAT
Catalog number: 26065
Epoch time:      103018.21692484
Element set:     711 
Inclination:      100.2166 deg
RA of node:        67.2439 deg
Eccentricity:    0.0037558
Arg of perigee:    16.8539 deg
Mean anomaly:     343.3879 deg
Mean motion:   14.35494007 rev/day
Decay rate:    2.8100E-006 rev/day^2
Epoch rev:           15588
Checksum:              310

Satellite: GOES 11
Catalog number: 26352
Epoch time:      103017.52733951
Element set:     979 
Inclination:        0.0669 deg
RA of node:       111.6003 deg
Eccentricity:    0.0004394
Arg of perigee:   166.2334 deg
Mean anomaly:     276.0773 deg
Mean motion:    1.00262178 rev/day
Decay rate:   -2.4999E-007 rev/day^2
Epoch rev:             991
Checksum:              298

Satellite: EUTELSAT W4
Catalog number: 26369
Epoch time:      103017.78991321
Element set:     340 
Inclination:        0.0478 deg
RA of node:        36.9870 deg
Eccentricity:    0.0006019
Arg of perigee:   241.7256 deg
Mean anomaly:     158.5214 deg
Mean motion:    1.00272317 rev/day
Decay rate:    1.6899E-006 rev/day^2
Epoch rev:             973
Checksum:              299

Satellite: FENGYUN 2B
Catalog number: 26382
Epoch time:      103017.58163794
Element set:     770 
Inclination:        0.6437 deg
RA of node:       287.2288 deg
Eccentricity:    0.0000454
Arg of perigee:   150.8964 deg
Mean anomaly:     352.2160 deg
Mean motion:    1.00264379 rev/day
Decay rate:   -3.1199E-006 rev/day^2
Epoch rev:             939
Checksum:              307

Satellite: EUTELSAT W1
Catalog number: 26487
Epoch time:      103016.79435765
Element set:     344 
Inclination:        0.0366 deg
RA of node:        92.6411 deg
Eccentricity:    0.0003921
Arg of perigee:   231.1725 deg
Mean anomaly:      87.9339 deg
Mean motion:    1.00275408 rev/day
Decay rate:    8.4999E-007 rev/day^2
Epoch rev:             869
Checksum:              313

Satellite: ASTRA 2B
Catalog number: 26494
Epoch time:      103013.00000000
Element set:     251 
Inclination:        0.0178 deg
RA of node:       354.5658 deg
Eccentricity:    0.0005000
Arg of perigee:   302.8402 deg
Mean anomaly:     202.8287 deg
Mean motion:    1.00276704 rev/day
Decay rate:    1.6899E-006 rev/day^2
Epoch rev:             855
Checksum:              240

Satellite: NOAA 16
Catalog number: 26536
Epoch time:      103017.69212897
Element set:     169 
Inclination:       98.8968 deg
RA of node:       326.2172 deg
Eccentricity:    0.0011110
Arg of perigee:    39.6814 deg
Mean anomaly:     320.5153 deg
Mean motion:   14.11886553 rev/day
Decay rate:    5.5700E-006 rev/day^2
Epoch rev:           11965
Checksum:              320

Satellite: SAUDISAT 1A
Catalog number: 26545
Epoch time:      103017.56165037
Element set:     399 
Inclination:       64.5588 deg
RA of node:       130.2904 deg
Eccentricity:    0.0054166
Arg of perigee:   243.8244 deg
Mean anomaly:     115.7220 deg
Mean motion:   14.78890002 rev/day
Decay rate:    2.1870E-005 rev/day^2
Epoch rev:           12448
Checksum:              300

Satellite: UNISAT
Catalog number: 26547
Epoch time:      103017.56400700
Element set:     418 
Inclination:       64.5571 deg
RA of node:       132.6374 deg
Eccentricity:    0.0061211
Arg of perigee:   246.3557 deg
Mean anomaly:     113.1050 deg
Mean motion:   14.79597630 rev/day
Decay rate:    3.7860E-005 rev/day^2
Epoch rev:           12445
Checksum:              282

Satellite: TIUNGSAT 1
Catalog number: 26548
Epoch time:      103016.41803962
Element set:     402 
Inclination:       64.5568 deg
RA of node:       127.0603 deg
Eccentricity:    0.0047344
Arg of perigee:   243.2006 deg
Mean anomaly:     116.4225 deg
Mean motion:   14.81148682 rev/day
Decay rate:    3.0119E-005 rev/day^2
Epoch rev:           12445
Checksum:              372

Satellite: SAUDISAT 1B
Catalog number: 26549
Epoch time:      103017.43942101
Element set:     668 
Inclination:       64.5485 deg
RA of node:       134.6107 deg
Eccentricity:    0.0058581
Arg of perigee:   244.0802 deg
Mean anomaly:     115.4246 deg
Mean motion:   14.77830485 rev/day
Decay rate:    2.3610E-005 rev/day^2
Epoch rev:           12439
Checksum:              298

Satellite: AMSAT OSCAR 40
Catalog number: 26609
Epoch time:      103014.42373129
Element set:     304 
Inclination:        7.9543 deg
RA of node:        70.5875 deg
Eccentricity:    0.7935115
Arg of perigee:   133.0894 deg
Mean anomaly:     327.3710 deg
Mean motion:    1.25596681 rev/day
Decay rate:    2.4999E-007 rev/day^2
Epoch rev:            1014
Checksum:              388

Satellite: GOES 12
Catalog number: 26871
Epoch time:      103017.22389260
Element set:     776 
Inclination:        0.4716 deg
RA of node:        97.7371 deg
Eccentricity:    0.0000777
Arg of perigee:    39.9403 deg
Mean anomaly:     313.9601 deg
Mean motion:    1.00278668 rev/day
Decay rate:   -7.4000E-007 rev/day^2
Epoch rev:             551
Checksum:              294

Satellite: STARSHINE 3
Catalog number: 26929
Epoch time:      103018.32349016
Element set:     694 
Inclination:       67.0182 deg
RA of node:        67.9458 deg
Eccentricity:    0.0006692
Arg of perigee:   326.4678 deg
Mean anomaly:      33.6221 deg
Mean motion:   16.22372457 rev/day
Decay rate:    2.1459E-002 rev/day^2
Epoch rev:            7387
Checksum:              326

Satellite: PCSAT
Catalog number: 26931
Epoch time:      103017.54222850
Element set:     379 
Inclination:       67.0478 deg
RA of node:       338.0623 deg
Eccentricity:    0.0005279
Arg of perigee:   258.2876 deg
Mean anomaly:     101.7634 deg
Mean motion:   14.29096869 rev/day
Decay rate:    3.9199E-006 rev/day^2
Epoch rev:            6777
Checksum:              347

Satellite: SAPPHIRE
Catalog number: 26932
Epoch time:      103018.22408751
Element set:     374 
Inclination:       67.0587 deg
RA of node:       336.0161 deg
Eccentricity:    0.0005932
Arg of perigee:   242.6105 deg
Mean anomaly:     117.4392 deg
Mean motion:   14.29283123 rev/day
Decay rate:    3.4800E-006 rev/day^2
Epoch rev:            6789
Checksum:              292

Satellite: ENVISAT
Catalog number: 27386
Epoch time:      103018.17780988
Element set:     855 
Inclination:       98.5496 deg
RA of node:        87.1823 deg
Eccentricity:    0.0000889
Arg of perigee:    94.8052 deg
Mean anomaly:     265.3227 deg
Mean motion:   14.32241866 rev/day
Decay rate:   -7.9900E-006 rev/day^2
Epoch rev:            4625
Checksum:              351

